map of LWR home
LWR - Airport
Location
City:  Leeuwarden, Fryslân (Friesland), Netherlands
Name:Leeuwarden AB
ICAO:EHLW
IATA:LWR

Details
Type:Airport (Aerodrome, Airfield)
Use:Military
Latitude:53°13'43"N (53.228611)
Longitude:5°45'38"E (5.760556)
Datum:WGS 1984
Elevation:3 ft (1 m)
Variation:1.75°E (WMM2015v2 magnetic declination)
0.19° annual change
Runways:2
Longest:9701 × 164 ft (2957 × 50 m), paved

Time
Time Zone:UTC+1 (DST+2)
Local Time:

Weather
METAR:EHLW 041410Z AUTO 19018KT 160V230 9000 DZRA BKN007 BKN008 OVC009 02/01 Q1018 GRN 20016G26KT 9000 BKN020 TEMPO 4000 RASN SCT007 BKN015 RMK R23

Related Locations
Nearby:
Farthest:CHT: 11771 mi / 18944 km
Waitangi [Tuuta], CIT, NZ

Find:

   beyond  
but within

Other Information
Maps:
NOTAMs:
Links:
Sources:

  
  • flag of Netherlands
  • flag of Fryslân (Friesland)
  

Airport Diagram

Airport diagram for LWR

Larger airport diagram (OBSOLETE) from NGA

Sectional Chart

Flight Planning
at skyvector.com

Satellite Image

Google Maps Satellite view

 

Copyright © 2004-2019 Karl L. Swartz. All rights reserved.
The Great Circle Mapper name and logo are trademarks of the Great Circle Mapper.
All other trademarks mentioned herein belong to their respective owners.
Please see credits for attibutions and further copyright information.

  Follow gcmap on Facebook Follow gcmap on Twitter GCmap on LinkedIn

hCard Microformat

Geo Microformat